K0IMS Weather Reports


time (UTC)temp
C
wind
direction
speed
KPH
gust
KPH
rain 1hr
cm
rain 24hr
cm
rain mn
cm
humidity
%
barometer
mb
20260906191518 26 0.0 3.2 0.00 0.00 0.00 63 1017.5
20260906191017 26 0.0 1.6 0.00 0.00 0.00 63 1017.5
20260906190517 26 0.0 3.2 0.00 0.00 0.00 64 1017.4
20260906190037 26 90 1.6 4.8 0.00 0.00 0.00 63 1017.5
20260906185517 26 113 1.6 3.2 0.00 0.00 0.00 63 1017.5
20260906185037 26 90 1.6 3.2 0.00 0.00 0.00 63 1017.3
20260906184517 26 0.0 3.2 0.00 0.00 0.00 64 1017.3
20260906184057 26 113 1.6 3.2 0.00 0.00 0.00 64 1017.3
20260906183517 26 90 1.6 3.2 0.00 0.00 0.00 64 1017.4
20260906183017 26 90 1.6 3.2 0.00 0.00 0.00 63 1017.5
20260906182517 26 113 1.6 4.8 0.00 0.00 0.00 65 1017.6
20260906182017 26 135 1.6 3.2 0.00 0.00 0.00 64 1017.7
20260906181537 26 90 1.6 4.8 0.00 0.00 0.00 64 1017.7
20260906181017 26 158 1.6 4.8 0.00 0.00 0.00 65 1017.7
20260906180537 26 90 1.6 3.2 0.00 0.00 0.00 65 1017.7
20260906180017 26 90 1.6 1.6 0.00 0.00 0.00 65 1017.6
20260906175517 26 0.0 3.2 0.00 0.00 0.00 66 1017.6
20260906175017 26 113 1.6 4.8 0.00 0.00 0.00 64 1017.6
20260906174517 26 113 1.6 4.8 0.00 0.00 0.00 64 1017.7
20260906174017 26 113 1.6 3.2 0.00 0.00 0.00 65 1017.6
20260906173517 26 90 1.6 4.8 0.00 0.00 0.00 64 1017.7
20260906173036 26 0.0 3.2 0.00 0.00 0.00 64 1017.7
20260906172517 26 90 1.6 3.2 0.00 0.00 0.00 64 1017.8
20260906172017 26 0.0 3.2 0.00 0.00 0.00 65 1017.9
20260906171537 26 90 1.6 4.8 0.00 0.00 0.00 68 1017.9
20260906171017 26 0.0 3.2 0.00 0.00 0.00 67 1017.9
20260906170517 26 158 1.6 3.2 0.00 0.00 0.00 68 1017.9
20260906170016 25 0.0 3.2 0.00 0.00 0.00 68 1018.1
20260906165516 25 203 1.6 4.8 0.00 0.00 0.00 68 1018.2
20260906165017 25 113 1.6 3.2 0.00 0.00 0.00 66 1018.0
20260906164537 25 113 1.6 3.2 0.00 0.00 0.00 67 1018.1
20260906164016 25 113 1.6 4.8 0.00 0.00 0.00 70 1018.0
20260906163516 25 0.0 3.2 0.00 0.00 0.00 69 1018.2
20260906163017 25 90 1.6 3.2 0.00 0.00 0.00 69 1018.3
20260906162516 25 90 1.6 3.2 0.00 0.00 0.00 69 1018.3
20260906162016 25 158 1.6 3.2 0.00 0.00 0.00 70 1018.2
20260906161536 25 113 1.6 4.8 0.00 0.00 0.00 70 1018.2
20260906161017 25 135 1.6 3.2 0.00 0.00 0.00 70 1018.2
20260906160537 25 113 1.6 4.8 0.00 0.00 0.00 71 1018.3
20260906160016 25 90 1.6 3.2 0.00 0.00 0.00 71 1018.5
20260906155517 25 0.0 3.2 0.00 0.00 0.00 71 1018.5
20260906155016 25 0.0 3.2 0.00 0.00 0.00 71 1018.5
20260906154516 24 0.0 3.2 0.00 0.00 0.00 72 1018.4
20260906154016 24 0.0 1.6 0.00 0.00 0.00 71 1018.4
20260906153516 24 0.0 1.6 0.00 0.00 0.00 72 1018.4
20260906153017 24 0.0 3.2 0.00 0.00 0.00 72 1018.6
20260906152516 24 113 1.6 3.2 0.00 0.00 0.00 73 1018.6
20260906152016 23 90 1.6 3.2 0.00 0.00 0.00 74 1018.7
20260906151516 23 0.0 3.2 0.00 0.00 0.00 76 1018.8
20260906151016 23 0.0 3.2 0.00 0.00 0.00 75 1018.6
20260906150516 23 0.0 3.2 0.00 0.00 0.00 75 1018.6
20260906150056 23 90 1.6 3.2 0.00 0.00 0.00 75 1018.5
20260906145516 23 0.0 1.6 0.00 0.00 0.00 76 1018.5
20260906145016 23 0.0 3.2 0.00 0.00 0.00 76 1018.3
20260906144516 23 113 1.6 3.2 0.00 0.00 0.00 77 1018.3
20260906144017 23 0.0 3.2 0.00 0.00 0.00 78 1018.3
20260906143516 22 0.0 3.2 0.00 0.00 0.00 79 1018.3
20260906143016 22 0.0 3.2 0.00 0.00 0.00 79 1018.3
20260906142516 22 0.0 3.2 0.00 0.00 0.00 80 1018.4
20260906142016 22 0.0 1.6 0.00 0.00 0.00 80 1018.4
20260906141516 22 0.0 1.6 0.00 0.00 0.00 81 1018.4
20260906141016 22 0.0 1.6 0.00 0.00 0.00 81 1018.4
20260906140516 21 0.0 1.6 0.00 0.00 0.00 82 1018.4
20260906140117 21 0.0 3.2 0.00 0.00 0.00 83 1018.5
20260906135536 21 0.0 3.2 0.00 0.00 0.00 83 1018.4
20260906135016 21 0.0 3.2 0.00 0.00 0.00 84 1018.4
20260906134516 21 0.0 3.2 0.00 0.00 0.00 84 1018.3
20260906134016 21 0.0 3.2 0.00 0.00 0.00 85 1018.3
20260906133537 21 0.0 3.2 0.00 0.00 0.00 86 1018.2
20260906133017 20 0.0 3.2 0.00 0.00 0.00 86 1018.1
20260906132516 20 0.0 3.2 0.00 0.00 0.00 86 1018.2
20260906132016 20 0.0 3.2 0.00 0.00 0.00 87 1018.1
20260906131536 20 0.0 3.2 0.00 0.00 0.00 87 1018.2
20260906131016 20 0.0 1.6 0.00 0.00 0.00 87 1018.1
20260906130516 20 0.0 0.0 0.00 0.00 0.00 88 1018.1
20260906130036 20 0.0 0.0 0.00 0.00 0.00 88 1018.1
20260906125516 20 0.0 3.2 0.00 0.00 0.00 88 1018.1
20260906125015 19 0.0 1.6 0.00 0.00 0.00 88 1018.1
20260906124516 19 0.0 0.0 0.00 0.00 0.00 87 1018.1
20260906124016 19 0.0 0.0 0.00 0.00 0.00 87 1018.1
20260906123516 18 0.0 0.0 0.00 0.00 0.00 87 1018.0
20260906123016 18 0.0 0.0 0.00 0.00 0.00 86 1018.1
20260906122516 18 0.0 0.0 0.00 0.00 0.00 87 1018.2
20260906122015 18 0.0 0.0 0.00 0.00 0.00 87 1018.1
20260906121516 18 0.0 0.0 0.00 0.00 0.00 86 1018.1
20260906121015 18 0.0 0.0 0.00 0.00 0.00 86 1018.0
20260906120516 18 0.0 0.0 0.00 0.00 0.00 86 1017.9
20260906120035 18 0.0 0.0 0.00 0.00 0.00 85 1017.8
20260906115516 18 0.0 0.0 0.00 0.00 0.00 85 1017.9
20260906115016 18 0.0 0.0 0.00 0.00 0.00 85 1017.9
20260906114515 18 0.0 0.0 0.00 0.00 0.00 85 1017.8
20260906114016 18 0.0 0.0 0.00 0.00 0.00 85 1017.7
20260906113516 18 0.0 0.0 0.00 0.00 0.00 85 1017.7
20260906113035 19 0.0 0.0 0.00 0.00 0.00 85 1017.6
20260906112516 19 0.0 0.0 0.00 0.00 0.00 85 1017.7
20260906112015 19 0.0 0.0 0.00 0.00 0.00 85 1017.8
20260906111515 19 0.0 0.0 0.00 0.00 0.00 85 1017.8
20260906111015 19 0.0 0.0 0.00 0.00 0.00 85 1017.7
20260906110515 19 0.0 0.0 0.00 0.00 0.00 85 1017.6
20260906110016 19 0.0 0.0 0.00 0.00 0.00 85 1017.6
20260906105515 19 0.0 0.0 0.00 0.00 0.00 85 1017.6
20260906105037 19 0.0 0.0 0.00 0.00 0.00 84 1017.6
20260906104517 19 0.0 0.0 0.00 0.00 0.00 84 1017.6
20260906104017 19 0.0 0.0 0.00 0.00 0.00 84 1017.6
20260906103517 20 0.0 0.0 0.00 0.00 0.00 84 1017.5
20260906103017 20 0.0 0.0 0.00 0.00 0.00 84 1017.4
20260906102517 20 0.0 0.0 0.00 0.00 0.00 84 1017.5
20260906102017 20 0.0 0.0 0.00 0.00 0.00 84 1017.5
20260906101517 20 0.0 0.0 0.00 0.00 0.00 83 1017.5
20260906101017 20 0.0 0.0 0.00 0.00 0.00 83 1017.4
20260906100518 20 0.0 0.0 0.00 0.00 0.00 83 1017.4
20260906100018 20 0.0 0.0 0.00 0.00 0.00 84 1017.4
20260906095517 20 0.0 0.0 0.00 0.00 0.00 83 1017.4
20260906095017 20 0.0 0.0 0.00 0.00 0.00 83 1017.2
20260906094538 20 0.0 0.0 0.00 0.00 0.00 83 1017.0
20260906094017 20 0.0 0.0 0.00 0.00 0.00 83 1016.9
20260906093517 20 0.0 0.0 0.00 0.00 0.00 83 1016.8
20260906093017 20 0.0 0.0 0.00 0.00 0.00 84 1016.8
20260906092517 20 0.0 0.0 0.00 0.00 0.00 84 1016.7
20260906092017 20 0.0 0.0 0.00 0.00 0.00 84 1016.6
20260906091517 20 0.0 0.0 0.00 0.00 0.00 84 1016.7
20260906091037 20 0.0 0.0 0.00 0.00 0.00 84 1016.7
20260906090517 20 0.0 0.0 0.00 0.00 0.00 84 1016.7
20260906090017 20 0.0 0.0 0.00 0.00 0.00 83 1016.7
20260906085517 20 0.0 0.0 0.00 0.00 0.00 83 1016.7
20260906085017 20 0.0 0.0 0.00 0.00 0.00 83 1016.7
20260906084517 21 0.0 0.0 0.00 0.00 0.00 83 1016.7
20260906084018 21 0.0 0.0 0.00 0.00 0.00 83 1016.7
20260906083517 21 0.0 0.0 0.00 0.00 0.00 83 1016.6
20260906083018 21 0.0 1.6 0.00 0.00 0.00 84 1016.6
20260906082517 21 0.0 1.6 0.00 0.00 0.00 83 1016.6
20260906082017 21 0.0 0.0 0.00 0.00 0.00 83 1016.5
20260906081517 21 0.0 0.0 0.00 0.00 0.00 82 1016.5
20260906081017 21 0.0 0.0 0.00 0.00 0.00 82 1016.6
20260906080517 21 0.0 0.0 0.00 0.00 0.00 82 1016.7
20260906080017 21 0.0 0.0 0.00 0.00 0.00 82 1016.7
20260906075517 21 0.0 0.0 0.00 0.00 0.00 81 1016.7
20260906075016 21 0.0 0.0 0.00 0.00 0.00 81 1016.6
20260906074537 21 0.0 0.0 0.00 0.00 0.00 81 1016.7
20260906074017 21 0.0 0.0 0.00 0.00 0.00 81 1016.6
20260906073517 21 0.0 0.0 0.00 0.00 0.00 81 1016.6
20260906073016 21 0.0 0.0 0.00 0.00 0.00 81 1016.7
20260906072537 21 0.0 0.0 0.00 0.00 0.00 81 1016.7
20260906072017 21 0.0 0.0 0.00 0.00 0.00 81 1016.8
20260906071516 21 0.0 0.0 0.00 0.00 0.00 81 1016.9
20260906071017 21 0.0 0.0 0.00 0.00 0.00 81 1017.0
20260906070517 21 0.0 0.0 0.00 0.00 0.00 81 1017.0
20260906070016 21 0.0 0.0 0.00 0.00 0.00 81 1016.9
20260906065537 21 0.0 0.0 0.00 0.00 0.00 81 1017.0
20260906065017 21 0.0 0.0 0.00 0.00 0.00 81 1017.1
20260906064516 21 0.0 0.0 0.00 0.00 0.00 81 1017.0
20260906064037 21 0.0 0.0 0.00 0.00 0.00 80 1017.0
20260906063517 21 0.0 0.0 0.00 0.00 0.00 80 1017.0
20260906063116 21 0.0 0.0 0.00 0.00 0.00 80 1017.0
20260906062517 21 0.0 0.0 0.00 0.00 0.00 79 1016.9
20260906062016 21 0.0 0.0 0.00 0.00 0.00 79 1017.0
20260906061517 21 0.0 0.0 0.00 0.00 0.00 79 1016.9
20260906061016 21 0.0 0.0 0.00 0.00 0.00 79 1017.0
20260906060536 21 0.0 0.0 0.00 0.00 0.00 79 1017.0
20260906060017 21 0.0 0.0 0.00 0.00 0.00 79 1017.0
20260906055516 21 0.0 0.0 0.00 0.00 0.00 78 1016.9
20260906055016 21 0.0 0.0 0.00 0.00 0.00 78 1016.9
20260906054516 21 0.0 0.0 0.00 0.00 0.00 78 1016.9
20260906054016 21 0.0 0.0 0.00 0.00 0.00 78 1016.9
20260906053516 22 0.0 0.0 0.00 0.00 0.00 78 1016.9
20260906053016 22 0.0 0.0 0.00 0.00 0.00 78 1016.9
20260906052517 22 0.0 0.0 0.00 0.00 0.00 78 1016.9
20260906052016 22 0.0 0.0 0.00 0.00 0.00 78 1016.8
20260906051516 22 0.0 0.0 0.00 0.00 0.00 77 1016.9
20260906051016 22 0.0 0.0 0.00 0.00 0.00 77 1016.8
20260906050516 22 0.0 0.0 0.00 0.00 0.00 77 1016.9
20260906050036 22 0.0 0.0 0.00 0.00 0.00 77 1016.8
20260906045516 22 0.0 0.0 0.00 0.00 0.00 77 1016.8
20260906045016 22 0.0 0.0 0.00 0.00 0.00 77 1016.9
20260906044516 22 0.0 0.0 0.00 0.00 0.00 76 1016.9
20260906044017 22 0.0 0.0 0.00 0.00 0.00 76 1017.1
20260906043516 22 0.0 0.0 0.00 0.00 0.00 76 1017.0
20260906043016 22 0.0 0.0 0.00 0.00 0.00 76 1017.1
20260906042516 22 0.0 0.0 0.00 0.00 0.00 76 1017.0
20260906042036 22 0.0 0.0 0.00 0.00 0.00 76 1017.0
20260906041516 22 0.0 0.0 0.00 0.00 0.00 75 1017.0
20260906041016 22 0.0 0.0 0.00 0.00 0.00 75 1016.9
20260906040517 22 0.0 0.0 0.00 0.00 0.00 75 1016.9
20260906040016 22 0.0 0.0 0.00 0.00 0.00 74 1016.9
20260906035537 23 0.0 0.0 0.00 0.00 0.00 74 1017.0
20260906035016 23 0.0 0.0 0.00 0.00 0.00 74 1017.1
20260906034516 23 0.0 0.0 0.00 0.00 0.00 73 1017.1
20260906034016 23 0.0 0.0 0.00 0.00 0.00 73 1017.0
20260906033536 23 0.0 0.0 0.00 0.00 0.00 72 1017.1
20260906033016 23 0.0 0.0 0.00 0.00 0.00 72 1017.1
20260906032516 23 0.0 0.0 0.00 0.00 0.00 71 1017.1
20260906032016 23 0.0 0.0 0.00 0.00 0.00 71 1017.1
20260906031516 23 0.0 0.0 0.00 0.00 0.00 71 1017.2
20260906031016 23 0.0 0.0 0.00 0.00 0.00 71 1017.2
20260906030516 23 0.0 0.0 0.00 0.00 0.00 71 1017.2
20260906030016 23 0.0 0.0 0.00 0.00 0.00 71 1017.2
20260906025536 24 0.0 0.0 0.00 0.00 0.00 71 1017.0
20260906025016 24 0.0 0.0 0.00 0.00 0.00 70 1017.1
20260906024515 24 0.0 0.0 0.00 0.00 0.00 69 1017.3
20260906024016 24 0.0 0.0 0.00 0.00 0.00 69 1017.3
20260906023516 24 0.0 0.0 0.00 0.00 0.00 68 1017.3
20260906023016 24 0.0 0.0 0.00 0.00 0.00 68 1017.1
20260906022536 24 0.0 0.0 0.00 0.00 0.00 68 1016.9
20260906022016 24 0.0 0.0 0.00 0.00 0.00 68 1016.7
20260906021535 25 0.0 0.0 0.00 0.00 0.00 67 1016.8
20260906021016 25 0.0 0.0 0.00 0.00 0.00 67 1016.7
20260906020535 25 0.0 0.0 0.00 0.00 0.00 67 1016.5
20260906020016 25 0.0 0.0 0.00 0.00 0.00 66 1016.2
20260906015515 25 0.0 3.2 0.00 0.00 0.00 66 1016.0
20260906015016 25 0.0 3.2 0.00 0.00 0.00 65 1015.9
20260906014515 25 0.0 0.0 0.00 0.00 0.00 65 1015.9
20260906014016 25 0.0 1.6 0.00 0.00 0.00 64 1015.7
20260906013515 25 0.0 3.2 0.00 0.00 0.00 64 1015.5
20260906013015 25 0.0 3.2 0.00 0.00 0.00 64 1015.4
20260906012515 26 90 1.6 1.6 0.00 0.00 0.00 63 1015.3
20260906012016 26 0.0 1.6 0.00 0.00 0.00 63 1015.2
20260906011515 26 0.0 1.6 0.00 0.00 0.00 63 1015.1
20260906011015 26 0.0 3.2 0.00 0.00 0.00 63 1015.1
20260906010516 26 0.0 3.2 0.00 0.00 0.00 63 1015.1
20260906010015 26 0.0 3.2 0.00 0.00 0.00 63 1015.0
20260906005515 26 0.0 3.2 0.00 0.00 0.00 62 1014.8
20260906005057 26 0.0 1.6 0.00 0.00 0.00 62 1014.7
20260906004518 26 0.0 3.2 0.00 0.00 0.00 61 1014.7
20260906004017 27 0.0 3.2 0.00 0.00 0.00 61 1014.6
20260906003517 27 0.0 1.6 0.00 0.00 0.00 60 1014.6
20260906003017 27 0.0 3.2 0.00 0.00 0.00 60 1014.5
20260906002517 27 0.0 3.2 0.00 0.00 0.00 59 1014.4
20260906002017 27 90 1.6 1.6 0.00 0.00 0.00 59 1014.2
20260906001517 27 0.0 3.2 0.00 0.00 0.00 60 1014.4
20260906001017 27 0.0 3.2 0.00 0.00 0.00 59 1014.5
20260906000517 27 0.0 1.6 0.00 0.00 0.00 59 1014.4
20260906000017 27 90 1.6 3.2 0.00 0.00 0.00 58 1014.2
20260905235517 27 90 1.6 3.2 0.00 0.00 0.00 58 1014.3
20260905235017 28 90 1.6 3.2 0.00 0.00 0.00 57 1014.5
20260905234517 28 68 1.6 3.2 0.00 0.00 0.00 57 1014.7
20260905234017 28 90 1.6 3.2 0.00 0.00 0.00 56 1014.6
20260905233517 28 0.0 3.2 0.00 0.00 0.00 56 1014.7
20260905233017 28 90 1.6 3.2 0.00 0.00 0.00 56 1014.7
20260905232517 28 90 1.6 3.2 0.00 0.00 0.00 55 1014.5
20260905232017 28 90 1.6 3.2 0.00 0.00 0.00 55 1014.5
20260905231518 28 90 1.6 3.2 0.00 0.00 0.00 54 1014.4
20260905231017 28 90 1.6 4.8 0.00 0.00 0.00 54 1014.4
20260905230638 29 90 1.6 4.8 0.00 0.00 0.00 54 1014.5
20260905230017 29 0.0 3.2 0.00 0.00 0.00 55 1014.5
20260905225517 29 68 1.6 3.2 0.00 0.00 0.00 55 1014.3
20260905225017 29 68 1.6 3.2 0.00 0.00 0.00 55 1014.3
20260905224517 29 90 1.6 3.2 0.00 0.00 0.00 57 1014.2
20260905224037 29 90 3.2 8.0 0.00 0.00 0.00 56 1014.1
20260905223517 29 90 3.2 4.8 0.00 0.00 0.00 55 1014.2
20260905223017 29 90 3.2 8.0 0.00 0.00 0.00 55 1014.3
20260905222517 29 90 3.2 8.0 0.00 0.00 0.00 54 1014.3
20260905222017 29 68 1.6 4.8 0.00 0.00 0.00 55 1014.4
20260905221538 29 90 3.2 4.8 0.00 0.00 0.00 55 1014.3
20260905221017 29 68 3.2 4.8 0.00 0.00 0.00 55 1014.4
20260905220517 29 68 3.2 6.4 0.00 0.00 0.00 56 1014.5
20260905220017 29 90 1.6 3.2 0.00 0.00 0.00 56 1014.7
20260905215517 29 90 1.6 3.2 0.00 0.00 0.00 56 1014.8
20260905215017 29 0.0 1.6 0.00 0.00 0.00 57 1014.5
20260905214517 29 68 3.2 9.7 0.00 0.00 0.00 57 1014.3
20260905214037 28 68 3.2 11.3 0.00 0.00 0.00 58 1014.3
20260905213517 28 68 3.2 11.3 0.00 0.00 0.00 57 1014.3
20260905213037 28 45 3.2 8.0 0.00 0.00 0.00 57 1014.4
20260905212516 28 68 3.2 8.0 0.00 0.00 0.00 58 1014.5
20260905212017 28 68 3.2 8.0 0.00 0.00 0.00 58 1014.6
20260905211517 28 68 3.2 4.8 0.00 0.00 0.00 58 1014.7
20260905211037 28 68 3.2 6.4 0.00 0.00 0.00 58 1014.9
20260905210516 28 68 3.2 4.8 0.00 0.00 0.00 58 1015.0
20260905210017 28 113 1.6 3.2 0.00 0.00 0.00 59 1015.1
20260905205517 28 90 1.6 3.2 0.00 0.00 0.00 59 1015.2
20260905205016 27 68 3.2 4.8 0.00 0.00 0.00 59 1015.3
20260905204517 27 90 3.2 6.4 0.00 0.00 0.00 59 1015.4
20260905204057 27 68 3.2 6.4 0.00 0.00 0.00 60 1015.4
20260905203516 27 68 1.6 3.2 0.00 0.00 0.00 59 1015.5
20260905203017 27 90 3.2 4.8 0.00 0.00 0.00 59 1015.7
20260905202516 27 90 1.6 4.8 0.00 0.00 0.00 62 1015.8
20260905202017 27 68 1.6 4.8 0.00 0.00 0.00 63 1015.8
20260905201516 27 45 1.6 4.8 0.00 0.00 0.00 63 1015.9
20260905201016 27 90 1.6 8.0 0.00 0.00 0.00 63 1016.0
20260905200558 27 68 1.6 6.4 0.00 0.00 0.00 64 1016.0
20260905200017 26 68 1.6 3.2 0.00 0.00 0.00 65 1016.2
20260905195537 26 68 1.6 3.2 0.00 0.00 0.00 63 1016.3
20260905195017 26 45 1.6 3.2 0.00 0.00 0.00 64 1016.3
20260905194517 26 90 1.6 3.2 0.00 0.00 0.00 65 1016.4
20260905194016 26 0.0 3.2 0.00 0.00 0.00 65 1016.5
20260905193516 26 0.0 3.2 0.00 0.00 0.00 67 1016.6
20260905193017 26 0.0 3.2 0.00 0.00 0.00 67 1016.6
20260905192538 26 0.0 1.6 0.00 0.00 0.00 68 1016.6
20260905192016 26 0.0 1.6 0.00 0.00 0.00 68 1016.6